| time (UTC) | temp C | wind direction | speed KPH | gust KPH | rain 1hr cm | rain 24hr cm | rain mn cm | humidity % | barometer mb |
| 20260505232105 | 16 | 272 | 8.0 | 16.1 | 0.00 | 0.58 | 0.58 | 54 | 1014.4 |
| 20260505231604 | 16 | 220 | 4.8 | 19.3 | 0.00 | 0.58 | 0.58 | 53 | 1014.5 |
| 20260505231107 | 16 | 266 | 9.7 | 19.3 | 0.00 | 0.58 | 0.58 | 54 | 1014.6 |
| 20260505230604 | 16 | 273 | 9.7 | 19.3 | 0.00 | 0.58 | 0.58 | 54 | 1014.6 |
| 20260505230105 | 16 | 252 | 3.2 | 11.3 | 0.00 | 0.58 | 0.58 | 57 | 1014.6 |
| 20260505225604 | 15 | 247 | 6.4 | 9.7 | 0.00 | 0.58 | 0.58 | 56 | 1014.8 |
| 20260505225104 | 15 | 270 | 6.4 | 11.3 | 0.00 | 0.58 | 0.58 | 56 | 1014.8 |
| 20260505224604 | 15 | 336 | 4.8 | 12.9 | 0.00 | 0.58 | 0.58 | 56 | 1014.8 |
| 20260505224104 | 15 | 290 | 4.8 | 12.9 | 0.00 | 0.58 | 0.58 | 58 | 1014.8 |
| 20260505223604 | 15 | 336 | 4.8 | 11.3 | 0.00 | 0.58 | 0.58 | 59 | 1014.9 |
| 20260505223105 | 15 | 291 | 3.2 | 16.1 | 0.00 | 0.58 | 0.58 | 61 | 1014.9 |
| 20260505222604 | 14 | 287 | 4.8 | 16.1 | 0.00 | 0.58 | 0.58 | 60 | 1014.9 |
| 20260505222104 | 14 | 262 | 8.0 | 12.9 | 0.00 | 0.58 | 0.58 | 60 | 1014.9 |
| 20260505221604 | 14 | 261 | 4.8 | 11.3 | 0.00 | 0.58 | 0.58 | 60 | 1015.0 |
| 20260505221106 | 14 | 288 | 3.2 | 11.3 | 0.00 | 0.58 | 0.58 | 62 | 1015.1 |
| 20260505220603 | 14 | 287 | 8.0 | 11.3 | 0.00 | 0.58 | 0.58 | 62 | 1015.2 |
| 20260505220105 | 14 | 290 | 4.8 | 9.7 | 0.00 | 0.58 | 0.58 | 62 | 1015.3 |
| 20260505215604 | 14 | 303 | 4.8 | 9.7 | 0.00 | 0.58 | 0.58 | 63 | 1015.3 |
| 20260505215104 | 14 | 289 | 4.8 | 8.0 | 0.00 | 0.58 | 0.58 | 61 | 1015.3 |
| 20260505214604 | 14 | 290 | 1.6 | 8.0 | 0.00 | 0.58 | 0.58 | 62 | 1015.3 |
| 20260505214104 | 14 | 283 | 3.2 | 8.0 | 0.00 | 0.58 | 0.58 | 62 | 1015.3 |
| 20260505213604 | 14 | 270 | 1.6 | 4.8 | 0.00 | 0.58 | 0.58 | 62 | 1015.3 |
| 20260505213104 | 14 | 270 | 1.6 | 4.8 | 0.00 | 0.58 | 0.58 | 62 | 1015.4 |
| 20260505212603 | 14 | 270 | 0.0 | 4.8 | 0.00 | 0.58 | 0.58 | 62 | 1015.4 |
| 20260505212104 | 14 | 298 | 1.6 | 4.8 | 0.00 | 0.58 | 0.58 | 63 | 1015.4 |
| 20260505211604 | 13 | 298 | 0.0 | 8.0 | 0.00 | 0.58 | 0.58 | 63 | 1015.4 |
| 20260505211106 | 13 | 298 | 3.2 | 8.0 | 0.00 | 0.58 | 0.58 | 64 | 1015.4 |
| 20260505210604 | 13 | 314 | 4.8 | 8.0 | 0.00 | 0.58 | 0.58 | 64 | 1015.4 |
| 20260505210104 | 13 | 307 | 3.2 | 8.0 | 0.00 | 0.58 | 0.58 | 64 | 1015.4 |
| 20260505205604 | 13 | 295 | 3.2 | 4.8 | 0.00 | 0.58 | 0.58 | 63 | 1015.4 |
| 20260505204604 | 13 | 295 | 1.6 | 4.8 | 0.00 | 0.58 | 0.58 | 65 | 1015.4 |
| 20260505204105 | 13 | 298 | 1.6 | 12.9 | 0.00 | 0.58 | 0.58 | 66 | 1015.4 |
| 20260505203604 | 13 | 298 | 3.2 | 12.9 | 0.00 | 0.58 | 0.58 | 66 | 1015.4 |
| 20260505203104 | 13 | 321 | 8.0 | 12.9 | 0.00 | 0.58 | 0.58 | 66 | 1015.4 |
| 20260505202604 | 13 | 303 | 3.2 | 8.0 | 0.00 | 0.58 | 0.58 | 66 | 1015.4 |
| 20260505202104 | 13 | 303 | 3.2 | 9.7 | 0.00 | 0.58 | 0.58 | 67 | 1015.4 |
| 20260505201604 | 13 | 294 | 4.8 | 11.3 | 0.00 | 0.58 | 0.58 | 67 | 1015.4 |
| 20260505201106 | 13 | 242 | 4.8 | 19.3 | 0.00 | 0.58 | 0.58 | 66 | 1015.5 |
| 20260505200604 | 14 | 255 | 8.0 | 19.3 | 0.00 | 0.58 | 0.58 | 66 | 1015.5 |
| 20260505200105 | 14 | 226 | 4.8 | 9.7 | 0.00 | 0.58 | 0.58 | 68 | 1015.5 |
| 20260505195104 | 13 | 254 | 1.6 | 9.7 | 0.00 | 0.58 | 0.58 | 73 | 1015.5 |
| 20260505194604 | 13 | 280 | 4.8 | 9.7 | 0.00 | 0.58 | 0.58 | 72 | 1015.6 |
| 20260505194104 | 13 | 24 | 1.6 | 8.0 | 0.00 | 0.58 | 0.58 | 76 | 1015.8 |
| 20260505193604 | 13 | 39 | 1.6 | 4.8 | 0.00 | 0.58 | 0.58 | 78 | 1015.8 |
| 20260505193104 | 13 | 44 | 1.6 | 4.8 | 0.00 | 0.58 | 0.58 | 79 | 1015.8 |
| 20260505192604 | 13 | 144 | 0.0 | 8.0 | 0.00 | 0.58 | 0.58 | 82 | 1015.8 |
| 20260505192105 | 13 | 153 | 3.2 | 8.0 | 0.00 | 0.58 | 0.58 | 83 | 1015.8 |
| 20260505191603 | 13 | 63 | 1.6 | 3.2 | 0.00 | 0.58 | 0.58 | 87 | 1015.9 |
| 20260505191107 | 12 | 63 | 1.6 | 4.8 | 0.00 | 0.58 | 0.58 | 89 | 1015.9 |
| 20260505190604 | 12 | 63 | 0.0 | 4.8 | 0.00 | 0.58 | 0.58 | 90 | 1015.9 |
| 20260505190104 | 12 | 63 | 3.2 | 4.8 | 0.00 | 0.58 | 0.58 | 91 | 1015.8 |
| 20260505185604 | 12 | 65 | 1.6 | 4.8 | 0.00 | 0.58 | 0.58 | 92 | 1015.9 |
| 20260505185104 | 13 | 129 | 0.0 | 4.8 | 0.00 | 0.58 | 0.58 | 94 | 1015.8 |
| 20260505184604 | 12 | 74 | 1.6 | 8.0 | 0.00 | 0.58 | 0.58 | 93 | 1015.8 |
| 20260505184104 | 12 | 66 | 1.6 | 8.0 | 0.00 | 0.58 | 0.58 | 95 | 1015.8 |
| 20260505183604 | 12 | 79 | 1.6 | 4.8 | 0.00 | 0.58 | 0.58 | 95 | 1015.8 |
| 20260505183104 | 12 | 78 | 0.0 | 4.8 | 0.00 | 0.58 | 0.58 | 95 | 1015.9 |
| 20260505182105 | 12 | 83 | 0.0 | 8.0 | 0.00 | 0.58 | 0.58 | 95 | 1015.9 |
| 20260505181605 | 12 | 164 | 0.0 | 4.8 | 0.00 | 0.58 | 0.58 | 96 | 1016.0 |
| 20260505180604 | 12 | 205 | 0.0 | 4.8 | 0.00 | 0.58 | 0.58 | 96 | 1016.1 |
| 20260505175103 | 11 | 205 | 0.0 | 3.2 | 0.00 | 0.58 | 0.58 | 96 | 1015.9 |
| 20260505174604 | 11 | 226 | 0.0 | 3.2 | 0.00 | 0.58 | 0.58 | 96 | 1015.8 |
| 20260505173104 | 11 | 226 | 0.0 | 3.2 | 0.00 | 0.58 | 0.58 | 100 | 1015.8 |
| 20260505172603 | 11 | 226 | 0.0 | 3.2 | 0.00 | 0.58 | 0.58 | 100 | 1015.8 |
| 20260505171604 | 10 | 226 | 0.0 | 1.6 | 0.00 | 0.58 | 0.58 | 100 | 1015.6 |
| 20260505171107 | 10 | 226 | 0.0 | 3.2 | 0.00 | 0.58 | 0.58 | 100 | 1015.4 |
| 20260505170603 | 10 | 227 | 1.6 | 3.2 | 0.03 | 0.58 | 0.58 | 98 | 1015.4 |
| 20260505170104 | 10 | 226 | 0.0 | 4.8 | 0.03 | 0.58 | 0.58 | 100 | 1015.3 |
| 20260505165603 | 10 | 226 | 0.0 | 4.8 | 0.03 | 0.58 | 0.58 | 100 | 1015.2 |
| 20260505165105 | 10 | 227 | 3.2 | 4.8 | 0.03 | 0.58 | 0.58 | 100 | 1015.2 |
| 20260505164604 | 10 | 259 | 0.0 | 3.2 | 0.03 | 0.58 | 0.58 | 100 | 1015.1 |
| 20260505164104 | 10 | 259 | 0.0 | 3.2 | 0.03 | 0.58 | 0.58 | 100 | 1015.1 |
| 20260505163604 | 10 | 259 | 1.6 | 8.0 | 0.03 | 0.58 | 0.58 | 100 | 1015.1 |
| 20260505163104 | 10 | 255 | 3.2 | 8.0 | 0.03 | 0.58 | 0.58 | 100 | 1015.1 |
| 20260505162604 | 10 | 290 | 1.6 | 4.8 | 0.03 | 0.58 | 0.58 | 100 | 1015.1 |
| 20260505162104 | 10 | 313 | 1.6 | 8.0 | 0.03 | 0.58 | 0.58 | 100 | 1014.9 |
| 20260505161604 | 10 | 315 | 1.6 | 8.0 | 0.03 | 0.58 | 0.58 | 100 | 1014.7 |
| 20260505161107 | 10 | 306 | 1.6 | 4.8 | 0.03 | 0.58 | 0.58 | 100 | 1014.6 |
| 20260505160104 | 10 | 294 | 1.6 | 8.0 | 0.00 | 0.56 | 0.56 | 100 | 1014.6 |
| 20260505153104 | 10 | 274 | 3.2 | 4.8 | 0.05 | 0.56 | 0.56 | 100 | 1014.4 |
| 20260505152605 | 10 | 288 | 1.6 | 3.2 | 0.05 | 0.56 | 0.56 | 100 | 1014.3 |
| 20260505152104 | 10 | 288 | 1.6 | 3.2 | 0.08 | 0.56 | 0.56 | 96 | 1014.3 |
| 20260505151604 | 10 | 288 | 0.0 | 3.2 | 0.08 | 0.56 | 0.56 | 99 | 1014.2 |
| 20260505151107 | 11 | 288 | 1.6 | 3.2 | 0.13 | 0.56 | 0.56 | 100 | 1014.2 |
| 20260505150604 | 10 | 290 | 0.0 | 1.6 | 0.13 | 0.56 | 0.56 | 100 | 1014.1 |
| 20260505140604 | 10 | 229 | 1.6 | 3.2 | 0.15 | 0.43 | 0.43 | 95 | 1014.0 |
| 20260505140104 | 10 | 267 | 1.6 | 4.8 | 0.18 | 0.43 | 0.43 | 95 | 1014.0 |
| 20260505130105 | 10 | 153 | 0.0 | 1.6 | 0.03 | 0.25 | 0.25 | 94 | 1013.5 |
| 20260505124104 | 10 | 173 | 0.0 | 1.6 | 0.05 | 0.25 | 0.25 | 94 | 1013.5 |
| 20260505123604 | 10 | 173 | 0.0 | 1.6 | 0.05 | 0.25 | 0.25 | 94 | 1013.5 |
| 20260505123104 | 10 | 175 | 0.0 | 1.6 | 0.05 | 0.25 | 0.25 | 94 | 1013.5 |
| 20260505122604 | 10 | 175 | 0.0 | 1.6 | 0.05 | 0.25 | 0.25 | 93 | 1013.5 |
| 20260505122104 | 10 | 175 | 0.0 | 1.6 | 0.05 | 0.25 | 0.25 | 93 | 1013.5 |
| 20260505121604 | 10 | 175 | 0.0 | 0.0 | 0.05 | 0.25 | 0.25 | 93 | 1013.5 |
| 20260505121106 | 10 | 175 | 0.0 | 0.0 | 0.05 | 0.25 | 0.25 | 93 | 1013.5 |
| 20260505120604 | 10 | 175 | 0.0 | 0.0 | 0.03 | 0.23 | 0.23 | 93 | 1013.5 |
| 20260505120104 | 10 | 175 | 0.0 | 0.0 | 0.03 | 0.23 | 0.23 | 93 | 1013.5 |
| 20260505115604 | 10 | 175 | 0.0 | 0.0 | 0.03 | 0.23 | 0.23 | 93 | 1013.6 |
| 20260505115104 | 10 | 175 | 0.0 | 1.6 | 0.03 | 0.23 | 0.23 | 93 | 1013.6 |
| 20260505114603 | 10 | 175 | 0.0 | 1.6 | 0.03 | 0.23 | 0.23 | 93 | 1013.7 |
| 20260505114104 | 10 | 175 | 0.0 | 0.0 | 0.00 | 0.20 | 0.20 | 93 | 1013.6 |
| 20260505113604 | 10 | 175 | 0.0 | 0.0 | 0.00 | 0.20 | 0.20 | 93 | 1013.6 |
| 20260505113104 | 10 | 175 | 0.0 | 0.0 | 0.00 | 0.20 | 0.20 | 93 | 1013.6 |
| 20260505111604 | 9 | 175 | 0.0 | 0.0 | 0.00 | 0.20 | 0.20 | 93 | 1013.6 |
| 20260505111107 | 9 | 175 | 0.0 | 1.6 | 0.00 | 0.20 | 0.20 | 92 | 1013.6 |
| 20260505110604 | 9 | 175 | 0.0 | 1.6 | 0.00 | 0.20 | 0.20 | 92 | 1013.5 |
| 20260505110104 | 9 | 175 | 0.0 | 1.6 | 0.00 | 0.20 | 0.20 | 92 | 1013.5 |
| 20260505102104 | 9 | 175 | 0.0 | 1.6 | 0.00 | 0.20 | 0.20 | 92 | 1013.7 |
| 20260505101605 | 9 | 175 | 0.0 | 1.6 | 0.00 | 0.20 | 0.20 | 92 | 1013.8 |
| 20260505101106 | 9 | 175 | 0.0 | 0.0 | 0.00 | 0.20 | 0.20 | 92 | 1013.8 |
| 20260505100604 | 9 | 175 | 0.0 | 0.0 | 0.00 | 0.20 | 0.20 | 92 | 1013.9 |
| 20260505100105 | 9 | 175 | 0.0 | 0.0 | 0.00 | 0.20 | 0.20 | 91 | 1013.9 |
| 20260505095604 | 9 | 175 | 0.0 | 0.0 | 0.03 | 0.20 | 0.20 | 91 | 1014.0 |
| 20260505095104 | 9 | 175 | 0.0 | 1.6 | 0.03 | 0.20 | 0.20 | 91 | 1014.0 |
| 20260505094104 | 9 | 175 | 0.0 | 1.6 | 0.05 | 0.20 | 0.20 | 91 | 1014.1 |
| 20260505093605 | 9 | 175 | 0.0 | 1.6 | 0.05 | 0.20 | 0.20 | 91 | 1014.1 |
| 20260505093103 | 10 | 175 | 0.0 | 1.6 | 0.05 | 0.20 | 0.20 | 91 | 1014.1 |
| 20260505092604 | 10 | 175 | 0.0 | 1.6 | 0.05 | 0.20 | 0.20 | 91 | 1014.1 |
| 20260505092104 | 10 | 175 | 0.0 | 1.6 | 0.05 | 0.20 | 0.20 | 90 | 1014.3 |
| 20260505091604 | 10 | 175 | 0.0 | 1.6 | 0.05 | 0.20 | 0.20 | 90 | 1014.4 |
| 20260505091107 | 10 | 197 | 0.0 | 1.6 | 0.05 | 0.20 | 0.20 | 90 | 1014.6 |
| 20260505090105 | 10 | 197 | 0.0 | 1.6 | 0.05 | 0.20 | 0.20 | 90 | 1014.7 |
| 20260505085604 | 10 | 197 | 0.0 | 1.6 | 0.03 | 0.18 | 0.18 | 90 | 1014.8 |
| 20260505085104 | 10 | 197 | 0.0 | 0.0 | 0.03 | 0.18 | 0.18 | 90 | 1014.8 |
| 20260505084604 | 10 | 197 | 0.0 | 1.6 | 0.00 | 0.15 | 0.15 | 89 | 1015.0 |
| 20260505083104 | 10 | 197 | 0.0 | 1.6 | 0.05 | 0.15 | 0.15 | 89 | 1015.0 |
| 20260505082604 | 10 | 200 | 0.0 | 1.6 | 0.13 | 0.15 | 0.15 | 89 | 1015.1 |
| 20260505082103 | 10 | 209 | 0.0 | 1.6 | 0.15 | 0.15 | 0.15 | 89 | 1015.2 |
| 20260505081605 | 10 | 223 | 0.0 | 1.6 | 0.15 | 0.15 | 0.15 | 89 | 1015.2 |
| 20260505080604 | 10 | 223 | 0.0 | 1.6 | 0.15 | 0.15 | 0.15 | 88 | 1015.2 |
| 20260505080104 | 10 | 223 | 0.0 | 3.2 | 0.15 | 0.15 | 0.15 | 88 | 1015.2 |
| 20260505075604 | 10 | 223 | 0.0 | 3.2 | 0.15 | 0.15 | 0.15 | 87 | 1015.3 |
| 20260505075104 | 10 | 285 | 1.6 | 3.2 | 0.15 | 0.15 | 0.15 | 87 | 1015.3 |
| 20260505074604 | 10 | 256 | 1.6 | 3.2 | 0.15 | 0.15 | 0.15 | 86 | 1015.4 |
| 20260505074104 | 10 | 301 | 1.6 | 3.2 | 0.15 | 0.15 | 0.15 | 86 | 1015.5 |
| 20260505073604 | 10 | 317 | 1.6 | 3.2 | 0.15 | 0.15 | 0.15 | 85 | 1015.4 |
| 20260505073104 | 11 | 203 | 1.6 | 3.2 | 0.13 | 0.13 | 0.13 | 83 | 1015.3 |
| 20260505072604 | 11 | 132 | 1.6 | 3.2 | 0.05 | 0.05 | 0.05 | 83 | 1015.2 |
| 20260505072104 | 11 | 216 | 0.0 | 1.6 | 0.00 | 0.00 | 0.00 | 83 | 1015.1 |
| 20260505071604 | 11 | 216 | 0.0 | 1.6 | 0.00 | 0.00 | 0.00 | 82 | 1015.2 |
| 20260505070604 | 11 | 216 | 0.0 | 3.2 | 0.00 | 0.00 | 0.00 | 81 | 1015.3 |
| 20260505070104 | 11 | 216 | 0.0 | 3.2 | 0.00 | 0.00 | 0.00 | 81 | 1015.2 |
| 20260505065604 | 11 | 308 | 0.0 | 3.2 | 0.00 | 0.00 | 0.00 | 81 | 1015.2 |
| 20260505065104 | 11 | 248 | 0.0 | 3.2 | 0.00 | 0.00 | 0.00 | 81 | 1015.3 |
| 20260505064604 | 11 | 228 | 0.0 | 3.2 | 0.00 | 0.00 | 0.00 | 81 | 1015.3 |
| 20260505064104 | 11 | 179 | 0.0 | 3.2 | 0.00 | 0.00 | 0.00 | 80 | 1015.4 |
| 20260505063604 | 11 | 177 | 0.0 | 3.2 | 0.00 | 0.00 | 0.00 | 80 | 1015.4 |
| 20260505063104 | 11 | 208 | 1.6 | 3.2 | 0.00 | 0.00 | 0.00 | 79 | 1015.3 |
| 20260505062604 | 11 | 242 | 0.0 | 1.6 | 0.00 | 0.00 | 0.00 | 79 | 1015.3 |
| 20260505062104 | 11 | 242 | 0.0 | 3.2 | 0.00 | 0.00 | 0.00 | 79 | 1015.3 |
| 20260505061604 | 11 | 289 | 0.0 | 3.2 | 0.00 | 0.00 | 0.00 | 78 | 1015.4 |
| 20260505061106 | 11 | 0 | 1.6 | 4.8 | 0.00 | 0.00 | 0.00 | 77 | 1015.5 |
| 20260505060604 | 11 | 279 | 1.6 | 4.8 | 0.00 | 0.00 | 0.00 | 76 | 1015.5 |
| 20260505060105 | 11 | 274 | 1.6 | 4.8 | 0.00 | 0.00 | 0.00 | 77 | 1015.5 |
| 20260505054604 | 12 | 195 | 0.0 | 1.6 | 0.00 | 0.00 | 0.00 | 77 | 1015.6 |
| 20260505054104 | 12 | 190 | 0.0 | 1.6 | 0.00 | 0.00 | 0.00 | 77 | 1015.6 |
| 20260505053604 | 12 | 189 | 0.0 | 3.2 | 0.00 | 0.00 | 0.00 | 76 | 1015.6 |
| 20260505053104 | 12 | 203 | 0.0 | 3.2 | 0.00 | 0.00 | 0.00 | 76 | 1015.6 |
| 20260505052604 | 12 | 174 | 1.6 | 3.2 | 0.00 | 0.00 | 0.00 | 76 | 1015.6 |
| 20260505051604 | 12 | 141 | 0.0 | 3.2 | 0.00 | 0.00 | 0.00 | 75 | 1015.6 |
| 20260505051107 | 12 | 209 | 1.6 | 3.2 | 0.00 | 0.00 | 0.00 | 75 | 1015.6 |
| 20260505050604 | 12 | 329 | 1.6 | 4.8 | 0.00 | 0.00 | 0.00 | 75 | 1015.6 |
| 20260505050104 | 12 | 295 | 1.6 | 4.8 | 0.00 | 0.00 | 0.00 | 74 | 1015.6 |
| 20260505041605 | 12 | 333 | 1.6 | 4.8 | 0.00 | 0.00 | 0.00 | 73 | 1015.5 |
| 20260505041106 | 12 | 353 | 1.6 | 4.8 | 0.00 | 0.00 | 0.00 | 73 | 1015.5 |
| 20260505040104 | 12 | 196 | 1.6 | 4.8 | 0.00 | 0.00 | 0.00 | 71 | 1015.4 |
| 20260505035606 | 12 | 303 | 1.6 | 4.8 | 0.00 | 0.00 | 0.00 | 71 | 1015.3 |
| 20260505035104 | 12 | 284 | 1.6 | 4.8 | 0.00 | 0.00 | 0.00 | 71 | 1015.1 |
| 20260505034604 | 12 | 248 | 1.6 | 4.8 | 0.00 | 0.00 | 0.00 | 71 | 1015.1 |
| 20260505034104 | 12 | 270 | 1.6 | 4.8 | 0.00 | 0.00 | 0.00 | 71 | 1015.1 |
| 20260505033604 | 12 | 258 | 1.6 | 4.8 | 0.00 | 0.00 | 0.00 | 71 | 1015.1 |
| 20260505033104 | 12 | 306 | 3.2 | 8.0 | 0.00 | 0.00 | 0.00 | 70 | 1015.0 |
| 20260505032604 | 13 | 274 | 1.6 | 11.3 | 0.00 | 0.00 | 0.00 | 69 | 1015.0 |
| 20260505031603 | 13 | 296 | 3.2 | 11.3 | 0.00 | 0.00 | 0.00 | 68 | 1015.0 |
| 20260505031106 | 13 | 262 | 1.6 | 4.8 | 0.00 | 0.00 | 0.00 | 68 | 1014.9 |
| 20260505030606 | 13 | 302 | 1.6 | 4.8 | 0.00 | 0.00 | 0.00 | 67 | 1014.8 |
| 20260505030104 | 13 | 333 | 1.6 | 4.8 | 0.00 | 0.00 | 0.00 | 66 | 1014.7 |
| 20260505025604 | 13 | 287 | 1.6 | 9.7 | 0.00 | 0.00 | 0.00 | 64 | 1014.7 |
| 20260505024104 | 13 | 275 | 4.8 | 9.7 | 0.00 | 0.00 | 0.00 | 63 | 1014.6 |
| 20260505023604 | 13 | 278 | 4.8 | 11.3 | 0.00 | 0.00 | 0.00 | 63 | 1014.7 |
| 20260505023104 | 13 | 284 | 4.8 | 14.5 | 0.00 | 0.00 | 0.00 | 62 | 1014.6 |
| 20260505022604 | 13 | 272 | 6.4 | 14.5 | 0.00 | 0.00 | 0.00 | 62 | 1014.6 |
| 20260505022104 | 13 | 267 | 8.0 | 14.5 | 0.00 | 0.00 | 0.00 | 62 | 1014.6 |
| 20260505021604 | 13 | 290 | 4.8 | 12.9 | 0.00 | 0.00 | 0.00 | 61 | 1014.6 |
| 20260505021106 | 13 | 280 | 4.8 | 12.9 | 0.00 | 0.00 | 0.00 | 61 | 1014.6 |
| 20260505020604 | 14 | 287 | 4.8 | 12.9 | 0.00 | 0.00 | 0.00 | 60 | 1014.6 |
| 20260505020104 | 14 | 299 | 6.4 | 16.1 | 0.00 | 0.00 | 0.00 | 59 | 1014.6 |
| 20260505015604 | 14 | 273 | 8.0 | 16.1 | 0.00 | 0.00 | 0.00 | 58 | 1014.6 |
| 20260505015104 | 14 | 304 | 8.0 | 19.3 | 0.00 | 0.00 | 0.00 | 58 | 1014.5 |
| 20260505014604 | 15 | 281 | 8.0 | 19.3 | 0.00 | 0.00 | 0.00 | 57 | 1014.4 |
| 20260505014104 | 15 | 281 | 9.7 | 19.3 | 0.00 | 0.00 | 0.00 | 57 | 1014.5 |
| 20260505013103 | 15 | 300 | 11.3 | 24.1 | 0.00 | 0.00 | 0.00 | 55 | 1014.5 |
| 20260505012104 | 16 | 295 | 14.5 | 27.4 | 0.00 | 0.00 | 0.00 | 50 | 1014.4 |
| 20260505011107 | 16 | 293 | 3.2 | 8.0 | 0.00 | 0.00 | 0.00 | 50 | 1014.5 |
| 20260505010604 | 16 | 273 | 3.2 | 11.3 | 0.00 | 0.00 | 0.00 | 50 | 1014.5 |
| 20260505005603 | 16 | 275 | 4.8 | 9.7 | 0.00 | 0.00 | 0.00 | 48 | 1014.6 |
| 20260505005104 | 16 | 260 | 3.2 | 8.0 | 0.00 | 0.00 | 0.00 | 47 | 1014.5 |
| 20260505004603 | 16 | 325 | 3.2 | 9.7 | 0.00 | 0.00 | 0.00 | 48 | 1014.5 |
| 20260505004103 | 16 | 329 | 1.6 | 9.7 | 0.00 | 0.00 | 0.00 | 47 | 1014.5 |
| 20260505003604 | 16 | 265 | 4.8 | 9.7 | 0.00 | 0.00 | 0.00 | 47 | 1014.5 |
| 20260505003104 | 16 | 266 | 4.8 | 9.7 | 0.00 | 0.00 | 0.00 | 45 | 1014.5 |
| 20260505002604 | 16 | 251 | 4.8 | 9.7 | 0.00 | 0.00 | 0.00 | 44 | 1014.6 |
| 20260505002104 | 16 | 257 | 4.8 | 9.7 | 0.00 | 0.00 | 0.00 | 45 | 1014.6 |
| 20260505001604 | 16 | 277 | 3.2 | 8.0 | 0.00 | 0.00 | 0.00 | 47 | 1014.6 |
| 20260505001106 | 16 | 264 | 3.2 | 8.0 | 0.00 | 0.00 | 0.00 | 46 | 1014.7 |
| 20260505000104 | 16 | 277 | 8.0 | 12.9 | 0.00 | 0.00 | 0.00 | 46 | 1014.6 |
| 20260504235605 | 16 | 275 | 8.0 | 11.3 | 0.00 | 0.00 | 0.00 | 47 | 1014.6 |
| 20260504234604 | 16 | 284 | 3.2 | 11.3 | 0.00 | 0.00 | 0.00 | 49 | 1014.6 |
| 20260504234104 | 16 | 279 | 4.8 | 9.7 | 0.00 | 0.00 | 0.00 | 47 | 1014.6 |
| 20260504233603 | 16 | 299 | 1.6 | 4.8 | 0.00 | 0.00 | 0.00 | 47 | 1014.6 |
| 20260504232604 | 16 | 284 | 4.8 | 12.9 | 0.00 | 0.00 | 0.00 | 47 | 1014.6 |